Satellite: MET-2/21
Catalog number: 22782
Epoch time:      09301.88765308
Element set:    0604
Inclination:      082.5454 deg
RA of node:       075.9468 deg
Eccentricity:    0.0021856
Arg of perigee:   335.4551 deg
Mean anomaly:     024.5569 deg
Mean motion:   13.83639545 rev/day
Decay rate:        4.7e-07 rev/day^2
Epoch rev:           81609
Checksum:              333

Satellite: OKEAN-4
Catalog number: 23317
Epoch time:      09301.85578878
Element set:      57
Inclination:      082.5411 deg
RA of node:       209.7405 deg
Eccentricity:    0.0020662
Arg of perigee:   286.4898 deg
Mean anomaly:     073.4052 deg
Mean motion:   14.82732445 rev/day
Decay rate:       2.37e-06 rev/day^2
Epoch rev:           81217
Checksum:              312

Satellite: NOAA-14
Catalog number: 23455
Epoch time:      09302.56744701
Element set:     808
Inclination:      098.8986 deg
RA of node:       019.7041 deg
Eccentricity:    0.0009810
Arg of perigee:   165.2076 deg
Mean anomaly:     194.9402 deg
Mean motion:   14.13771402 rev/day
Decay rate:        3.5e-07 rev/day^2
Epoch rev:           76491
Checksum:              308

Satellite: NOAA-15
Catalog number: 25338
Epoch time:      09302.53608481
Element set:     134
Inclination:      098.5978 deg
RA of node:       288.8892 deg
Eccentricity:    0.0011095
Arg of perigee:   031.4440 deg
Mean anomaly:     328.7390 deg
Mean motion:   14.24789292 rev/day
Decay rate:      -1.02e-06 rev/day^2
Epoch rev:           59590
Checksum:              329

Satellite: RESURS
Catalog number: 25394
Epoch time:      09302.69972124
Element set:     344
Inclination:      098.3300 deg
RA of node:       328.1295 deg
Eccentricity:    0.0001385
Arg of perigee:   140.1730 deg
Mean anomaly:     219.9551 deg
Mean motion:   14.24188922 rev/day
Decay rate:       -4.6e-07 rev/day^2
Epoch rev:           58754
Checksum:              297

Satellite: FENGYUN1
Catalog number: 25730
Epoch time:      09302.80699483
Element set:     886
Inclination:      098.7657 deg
RA of node:       269.0080 deg
Eccentricity:    0.0020840
Arg of perigee:   192.8751 deg
Mean anomaly:     167.1890 deg
Mean motion:   14.08036851 rev/day
Decay rate:      1.005e-05 rev/day^2
Epoch rev:           53926
Checksum:              322

Satellite: OKEAN-0
Catalog number: 25860
Epoch time:      09302.75514565
Element set:     822
Inclination:      097.8040 deg
RA of node:       278.7104 deg
Eccentricity:    0.0001740
Arg of perigee:   082.6231 deg
Mean anomaly:     277.5175 deg
Mean motion:   14.73594516 rev/day
Decay rate:        8.3e-07 rev/day^2
Epoch rev:           55296
Checksum:              304

Satellite: NOAA-16
Catalog number: 26536
Epoch time:      09302.59369444
Element set:     614
Inclination:      099.1795 deg
RA of node:       309.5381 deg
Eccentricity:    0.0009728
Arg of perigee:   263.0677 deg
Mean anomaly:     096.9397 deg
Mean motion:   14.12535158 rev/day
Decay rate:       -8.2e-07 rev/day^2
Epoch rev:           46927
Checksum:              352

Satellite: NOAA-17
Catalog number: 27453
Epoch time:      09302.54942749
Element set:     606
Inclination:      098.4672 deg
RA of node:       356.8771 deg
Eccentricity:    0.0012790
Arg of perigee:   092.5491 deg
Mean anomaly:     267.7167 deg
Mean motion:   14.24102766 rev/day
Decay rate:       1.77e-06 rev/day^2
Epoch rev:           38187
Checksum:              342

Satellite: NOAA-18
Catalog number: 28654
Epoch time:      09302.60966912
Element set:      94
Inclination:      098.9203 deg
RA of node:       244.8826 deg
Eccentricity:    0.0014229
Arg of perigee:   347.3387 deg
Mean anomaly:     012.7410 deg
Mean motion:   14.11299286 rev/day
Decay rate:       4.34e-06 rev/day^2
Epoch rev:           22891
Checksum:              319

Satellite: NOAA-19
Catalog number: 33591
Epoch time:      09302.54767637
Element set:     299
Inclination:      098.7601 deg
RA of node:       244.8931 deg
Eccentricity:    0.0013454
Arg of perigee:   220.2063 deg
Mean anomaly:     139.8109 deg
Mean motion:   14.10997265 rev/day
Decay rate:       3.30e-06 rev/day^2
Epoch rev:            3738
Checksum:              316

/EX
SB KEPS @ AMSAT  $ORB09302.M
Orbital Elements  09302.MISC

HR AMSAT ORBITAL ELEMENTS FOR MANNED AND MISCELLANEOUS SATELLITES
FROM WA5QGD FORT WORTH,TX October 29, 2009
Send Subscribe/unsubscribe to KEPS at 
http://www.amsat.org/mailman/listinfo/keps
BID: ORB09302.M
TO ALL RADIO AMATEURS BT

Satellite: HUBBLE
Catalog number: 20580
Epoch time:      09300.38005163
Element set:     468
Inclination:      028.4706 deg
RA of node:       319.5105 deg
Eccentricity:    0.0003535
Arg of perigee:   245.4323 deg
Mean anomaly:     114.6084 deg
Mean motion:   15.00845672 rev/day
Decay rate:       5.10e-06 rev/day^2
Epoch rev:           86973
Checksum:              271

Satellite: ISS
Catalog number: 25544
Epoch time:      09303.02141007
Element set:     880
Inclination:      051.6441 deg
RA of node:       334.3471 deg
Eccentricity:    0.0006265
Arg of perigee:   264.9592 deg
Mean anomaly:     189.0978 deg
Mean motion:   15.75618079 rev/day
Decay rate:     2.4258e-04 rev/day^2
Epoch rev:           62719
Checksum:              312

